Date String (YYYY-MM-DD hh:mm:ss) UTC,Instrument flags,absolute air pressure of the measurement (hPa),sample flow rate (lpm),inlet stack bypass flow (lpm),air temperature of the measurement (°C),ambient temperature measured by the external sensor (°C),aerosol sample conditioner tube jacket temperature (°C),OPC LED temperature (°C),internal box temperature (°C),relative humidity of the measurement (%),span deviation,mass concentration of particles derived from Lorenz-Mie calculation of OPC scattering (μg/m³),mass concentration of particles derived from Lorenz-Mie calculation of OPC scattering (μg/m³),mass concentration of particles derived from Lorenz-Mie calculation of OPC scattering (μg/m³)
DateTimeUTC,F1_M11,P_M11,Q1_M11,Q2_M11,T1_M11,T2_M11,T3_M11,T4_M11,T5_M11,U1_M11,ZSPAN_M11,X0_M11,X2_M11,X1_M11
2023-06-15 13:00:00,SystemResetWarning,0825.5,5.01,000.00,030.5,028.8,000.0,039.1,032.0,18.4,0000.0,0002.81,0001.40,0001.07
2023-06-15 13:01:00,SystemResetWarning,0825.5,5.00,000.00,030.5,028.9,000.0,039.1,032.0,18.5,0000.0,0002.88,0001.41,0001.08
2023-06-15 13:02:00,SystemResetWarning,0825.5,4.99,000.00,030.5,028.9,000.0,039.1,032.0,18.6,0000.0,0002.96,0001.44,0001.08
2023-06-15 13:03:00,SystemResetWarning,0825.5,5.00,000.00,030.5,028.9,000.0,039.1,032.0,18.4,0000.0,0002.90,0001.41,0001.08
2023-06-15 13:04:00,SystemResetWarning,0825.5,5.00,000.00,030.5,028.9,000.0,039.1,032.0,18.3,0000.0,0002.80,0001.38,0001.08
2023-06-15 13:05:00,SystemResetWarning,0825.5,5.00,000.00,030.5,028.9,000.0,039.1,032.0,18.2,0000.0,0002.54,0001.39,0001.08
2023-06-15 13:06:00,SystemResetWarning,0825.5,5.00,000.00,030.5,028.9,000.0,039.1,032.0,18.5,0000.0,0002.39,0001.43,0001.08
2023-06-15 13:07:00,SystemResetWarning,0825.5,5.00,000.00,030.6,028.9,000.0,039.1,032.0,20.3,0000.0,0002.40,0001.44,0001.08
2023-06-15 13:08:00,SystemResetWarning,0825.5,5.00,000.00,030.6,028.9,000.0,039.1,032.0,19.7,0000.0,0002.39,0001.42,0001.08
2023-06-15 13:09:00,SystemResetWarning,0825.5,5.01,000.00,030.6,028.9,000.0,039.1,032.0,19.3,0000.0,0002.35,0001.40,0001.08
2023-06-15 13:10:00,SystemResetWarning,0825.5,5.00,000.00,030.6,028.9,000.0,039.1,032.0,19.0,0000.0,0002.36,0001.39,0001.08
2023-06-15 13:11:00,SystemResetWarning,0825.5,5.00,000.00,030.6,028.9,000.0,039.2,032.0,18.7,0000.0,0002.41,0001.41,0001.09
2023-06-15 13:12:00,SystemResetWarning,0825.5,4.99,000.00,030.6,028.9,000.0,039.2,032.1,18.6,0000.0,0002.58,0001.40,0001.08
2023-06-15 13:13:00,SystemResetWarning,0825.6,4.98,000.00,030.6,028.9,000.0,039.2,032.0,18.6,0000.0,0002.50,0001.38,0001.07
2023-06-15 13:14:00,SystemResetWarning,0825.6,5.00,000.00,030.6,028.9,000.0,039.2,032.0,18.4,0000.0,0002.61,0001.41,0001.08
2023-06-15 13:15:00,SystemResetWarning,0825.6,5.00,000.00,030.6,028.9,000.0,039.2,032.0,18.1,0000.0,0002.69,0001.43,0001.08
2023-06-15 13:16:00,SystemResetWarning,0825.6,5.00,000.00,030.6,029.0,000.0,039.2,032.0,18.1,0000.0,0002.67,0001.42,0001.08
2023-06-15 13:17:00,SystemResetWarning,0825.7,5.00,000.00,030.6,029.0,000.0,039.2,032.1,18.2,0000.0,0002.49,0001.38,0001.08
2023-06-15 13:18:00,SystemResetWarning,0825.6,5.00,000.00,030.6,029.0,000.0,039.2,032.1,18.3,0000.0,0002.45,0001.36,0001.08
2023-06-15 13:19:00,SystemResetWarning,0825.6,5.00,000.00,030.6,029.0,000.0,039.2,032.1,18.3,0000.0,0002.41,0001.35,0001.07
2023-06-15 13:20:00,SystemResetWarning,0825.6,5.00,000.00,030.6,029.0,000.0,039.2,032.1,18.1,0000.0,0002.37,0001.34,0001.06
2023-06-15 13:21:00,SystemResetWarning,0825.7,5.00,000.00,030.6,029.0,000.0,039.2,032.1,18.0,0000.0,0002.24,0001.30,0001.06
2023-06-15 13:22:00,SystemResetWarning,0825.6,5.00,000.00,030.6,029.0,000.0,039.2,032.1,18.3,0000.0,0002.13,0001.27,0001.05
2023-06-15 13:23:00,SystemResetWarning,0825.6,5.00,000.00,030.6,029.0,000.0,039.2,032.1,19.9,0000.0,0002.49,0001.27,0001.04
2023-06-15 13:24:00,SystemResetWarning,0825.6,5.00,000.00,030.7,029.0,000.0,039.2,032.1,22.7,0000.0,0002.96,0001.27,0001.04
2023-06-15 13:25:00,SystemResetWarning,0825.6,5.00,000.00,030.7,029.0,000.0,039.2,032.1,23.0,0000.0,0003.61,0001.23,0001.04
2023-06-15 13:26:00,SystemResetWarning,0825.6,5.00,000.00,030.7,029.0,000.0,039.2,032.1,23.6,0000.0,0003.48,0001.21,0001.03
2023-06-15 13:27:00,SystemResetWarning,0825.6,5.00,000.00,030.7,029.0,000.0,039.2,032.1,23.8,0000.0,0003.49,0001.21,0001.03
2023-06-15 13:28:00,SystemResetWarning,0825.7,5.00,000.00,030.7,029.1,000.0,039.3,032.1,24.3,0000.0,0003.52,0001.22,0001.03
2023-06-15 13:29:00,SystemResetWarning,0825.7,5.00,000.00,030.7,029.1,000.0,039.3,032.2,24.1,0000.0,0003.52,0001.22,0001.04
2023-06-15 13:30:00,SystemResetWarning,0825.8,5.00,000.00,030.7,029.1,000.0,039.3,032.1,23.7,0000.0,0003.66,0001.27,0001.05
2023-06-15 13:31:00,SystemResetWarning,0825.8,5.00,000.00,030.7,029.1,000.0,039.3,032.1,22.6,0000.0,0003.91,0001.30,0001.04
2023-06-15 13:32:00,SystemResetWarning,0825.8,5.00,000.00,030.7,029.1,000.0,039.3,032.2,21.2,0000.0,0004.10,0001.32,0001.04
2023-06-15 13:33:00,SystemResetWarning,0825.7,5.00,000.00,030.7,029.1,000.0,039.3,032.2,21.8,0000.0,0004.23,0001.36,0001.05
2023-06-15 13:34:00,SystemResetWarning,0825.7,5.00,000.00,030.7,029.1,000.0,039.3,032.2,20.3,0000.0,0003.91,0001.35,0001.05
2023-06-15 13:35:00,SystemResetWarning,0825.8,5.00,000.00,030.7,029.1,000.0,039.3,032.2,20.2,0000.0,0003.42,0001.35,0001.06
2023-06-15 13:36:00,SystemResetWarning,0825.8,5.00,000.00,030.7,029.1,000.0,039.3,032.2,21.0,0000.0,0002.85,0001.39,0001.08
2023-06-15 13:37:00,SystemResetWarning,0825.8,4.99,000.00,030.7,029.1,000.0,039.3,032.2,21.3,0000.0,0002.75,0001.42,0001.08
2023-06-15 13:38:00,SystemResetWarning,0825.8,5.00,000.00,030.7,028.7,000.0,039.3,032.2,21.0,0000.0,0002.94,0001.45,0001.08
2023-06-15 13:39:00,SystemResetWarning,0825.7,5.00,000.00,030.7,026.4,000.0,039.2,031.9,20.8,0000.0,0002.92,0001.45,0001.08
2023-06-15 13:40:00,SystemResetWarning,0825.7,5.02,000.00,030.7,025.4,000.0,039.2,031.9,20.3,0000.0,0002.98,0001.48,0001.08
2023-06-15 13:41:00,SystemResetWarning,0825.7,5.00,000.00,030.5,025.5,000.0,039.1,031.5,20.8,0000.0,0002.87,0001.46,0001.07
2023-06-15 13:42:00,SystemResetWarning,0825.7,5.00,000.00,030.4,025.9,000.0,039.1,031.5,20.5,0000.0,0002.67,0001.45,0001.09
2023-06-15 13:43:00,SystemResetWarning,0825.8,4.99,000.00,030.4,026.3,000.0,039.1,031.5,22.2,0000.0,0002.49,0001.46,0001.10
2023-06-15 13:44:00,SystemResetWarning,0825.8,5.00,000.00,030.3,026.7,000.0,039.1,031.5,23.4,0000.0,0002.46,0001.47,0001.11
2023-06-15 13:45:00,SystemResetWarning,0825.7,5.00,000.00,030.3,027.1,000.0,039.0,031.6,23.2,0000.0,0002.40,0001.48,0001.12
2023-06-15 13:46:00,SystemResetWarning,0825.7,5.00,000.00,030.3,027.4,000.0,039.0,031.6,23.2,0000.0,0002.40,0001.48,0001.13
2023-06-15 13:47:00,SystemResetWarning,0825.7,4.99,000.00,030.3,027.6,000.0,039.0,031.6,22.4,0000.0,0002.34,0001.48,0001.13
2023-06-15 13:48:00,SystemResetWarning,0825.7,5.00,000.00,030.3,027.8,000.0,039.0,031.6,22.1,0000.0,0002.30,0001.47,0001.13
2023-06-15 13:49:00,SystemResetWarning,0825.7,5.00,000.00,030.3,028.0,000.0,039.0,031.6,21.9,0000.0,0002.26,0001.49,0001.14
2023-06-15 13:50:00,SystemResetWarning,0825.7,5.00,000.00,030.3,028.1,000.0,038.9,031.7,21.7,0000.0,0002.27,0001.48,0001.14
2023-06-15 13:51:00,SystemResetWarning,0825.7,5.01,000.00,030.3,028.2,000.0,038.9,031.7,22.3,0000.0,0002.25,0001.48,0001.13
2023-06-15 13:52:00,SystemResetWarning,0825.7,5.00,000.00,030.3,028.3,000.0,038.9,031.7,22.3,0000.0,0002.30,0001.50,0001.14
2023-06-15 13:53:00,SystemResetWarning,0825.8,5.00,000.00,030.3,028.4,000.0,038.9,031.7,23.1,0000.0,0002.38,0001.52,0001.13
2023-06-15 13:54:00,SystemResetWarning,0825.8,5.00,000.00,030.3,028.4,000.0,038.9,031.7,22.5,0000.0,0002.49,0001.52,0001.12
2023-06-15 13:55:00,SystemResetWarning,0825.8,4.99,000.00,030.3,028.5,000.0,038.9,031.7,22.0,0000.0,0002.61,0001.53,0001.12
2023-06-15 13:56:00,SystemResetWarning,0825.8,4.99,000.00,030.3,028.5,000.0,038.9,031.7,22.6,0000.0,0002.71,0001.57,0001.13
2023-06-15 13:57:00,SystemResetWarning,0825.8,5.00,000.00,030.3,028.6,000.0,038.9,031.7,23.0,0000.0,0002.78,0001.58,0001.13
2023-06-15 13:58:00,SystemResetWarning,0825.7,5.00,000.00,030.3,028.6,000.0,038.9,031.8,23.6,0000.0,0002.91,0001.61,0001.14
2023-06-15 13:59:00,SystemResetWarning,0825.8,5.00,000.00,030.3,028.6,000.0,038.9,031.8,23.5,0000.0,0003.01,0001.64,0001.14
